Starlink 31668

operational
NORAD ID: 59580 Int'l Des: 2024-076 Owner: SPXS Country: US Constellation: starlink
LEOCIRCULAR

Starlink 31668について

説明を読み込み中...

リアルタイム位置

3D地球を読み込み中...

次回通過

高度履歴

Altitude vs Time

uPlot chart will show altitude changes over time

軌道要素

1 59580U 24076S 25354.34721456 .00002881 00000-0 11411-3 0 9997
2 59580 43.0012 96.6171 0001507 258.1112 101.9570 15.27598283 94378
Epoch: Dec 20, 2025 • Age: 22 hours

現在のステータス

高度 484.1 km
速度 7.62 km/s
衛星直下点 -8.58°S, 101.6°W
打ち上げ日 Apr 23, 2024
運用期間 1.6 years
タイプ internet

技術仕様

分類 Payload
質量 730.00 kg
乾燥質量 700.00 kg
総質量 730.00 kg
長さ 0.30 m
直径 4.10 m
スパン 29.00 m
形状 Box + pan
製造者 SPXS
バスタイプ Starlink V2M
フェーズステータス In Orbit
所有者/国 SPXS/US

大規模コンステレーション

Loading constellations...